Location: Ferintosh
(52.7647°N, 112.9692°W)
Time: 00:59:06
(UTC+00:00)

S-56A Canister/Altair - Pass Details

Date: 23 May 2024
Orbit: 637 x 2489 km, 38.9° (Epoch: 20 June)

Event Time Altitude Azimuth Distance (km) Brightness Sun altitude
Rises 12:23:23 0° 207° (SSW) 6,005 11.6 7.0°
Reaches altitude 10° 12:28:49 10° 194° (SSW) 4,794 11.2 7.8°
Maximum altitude 12:37:28 21° 152° (SSE) 3,475 11.0 9.0°
Drops below altitude 10° 12:44:29 10° 109° (ESE) 3,796 12.0 10.0°
Sets 12:48:06 0° 94° (E) 4,477 12.8 10.5°
